[[{"header":{"parameterUnit":"m.s-1","parameterCategory":1,"la1":30.2991,"la2":30.254,"lo1":-89.0895,"lo2":-89.0444,"dy":0.0017,"dx":0.0017,"nx":28,"ny":28,"refTime":"2025-12-12T03:00:00:Z","depth":0,"parameterNumber":2,"parameterNumberName":"U-component_of_WINDS"},"data":[0,0,0,0,0,0,0,0,0,0,0,0,0,0,0,0,0,0,0,0,0,0,0,0,0,0,0,0,0,0,0,0,0,0,0,0,0,0,0,0,0,0,0,0,0,0,0,0,0,0,0,0,0,0,0,0,0,0,0.7553,0.7554,0,0.7695,0.7696,0.7698,0.7714,0.7713,0.7711,0.771,0.7854,0.7859,0.7864,0,0,0,0,0,0,0,0,0,0,0,0,0,0.7294,0.7299,0.7553,0.7554,0.7556,0.7694,0.7696,0.7698,0.7715,0.7713,0.7711,0.771,0.7852,0.7858,0.7865,0,0,0,0,0,0,0,0,0,0,0,0,0,0.7418,0.7301,0.7552,0.7581,0.7585,0.7694,0.7696,0.7699,0.7715,0.7713,0.7711,0.7709,0.785,0.7858,0.7865,0.7955,0,0,0.7889,0.7892,0,0,0,0,0,0,0,0,0.7411,0.7428,0.7575,0.7579,0.7584,0.7685,0.7658,0.7785,0.7715,0.7666,0.771,0.7708,0.7799,0.7811,0.7842,0.7962,0.7968,0.789,0.7894,0.7898,0.79,0,0,0,0,0,0,0,0.7403,0.7422,0.7609,0.7577,0.7583,0.7586,0.7602,0.7682,0.7742,0.767,0.7671,0.7688,0.7801,0.7835,0.7846,0.797,0.7889,0.7896,0.7901,0.7904,0.817,0.8172,0,0,0,0,0,0,0.7389,0.7415,0.7604,0.7613,0.7491,0.7593,0.761,0.7654,0.7742,0.7753,0.769,0.7688,0.7823,0.7837,0.7851,0.7962,0.7898,0.7905,0.7909,0.8168,0.8171,0.8173,0,0,0,0,0,0,0.7383,0.7406,0.7598,0.7514,0.7539,0.7599,0.7649,0.7658,0.7692,0.7757,0.7767,0.7713,0.7822,0.784,0.7929,0.7967,0.7908,0.7915,0.8165,0.8169,0.8172,0.8184,0,0,0,0,0,0,0.7376,0.7404,0.7439,0.7515,0.7544,0.7675,0.7652,0.7663,0.7705,0.7705,0.7781,0.7792,0.7821,0.7918,0.7937,0.7976,0.7921,0.8162,0.8167,0.8171,0.818,0.8187,0.8193,0,0,0,0,0,0.7367,0.7436,0.744,0.7463,0.7589,0.7677,0.7693,0.7726,0.7708,0.7744,0.7785,0.7789,0.7959,0.7927,0.7948,0.7991,0.816,0.8165,0.817,0.8177,0.8186,0.8193,0,0,0,0,0,0,0.7362,0.7447,0.7452,0.7549,0.7606,0.768,0.7726,0.7734,0.7797,0.7794,0.7832,0.7849,0.7936,0.7972,0.7934,0.8082,0.8058,0.8068,0.8055,0.8064,0.8071,0.806,0.7928,0,0,0,0,0,0.7373,0.7438,0.7508,0.7586,0.7614,0.7665,0.7705,0.7725,0.7785,0.7809,0.7857,0.7915,0.7982,0.8025,0.809,0.8185,0.8202,0.8225,0.8232,0.8237,0.8245,0.8298,0.8309,0.8191,0.8191,0.8191,0,0,0.7395,0.7449,0.7487,0.7586,0.7633,0.7699,0.7685,0.7756,0.7805,0.782,0.7907,0.7944,0.8012,0.8104,0.8148,0.8137,0.8281,0.8244,0.8247,0.8253,0.8305,0.8316,0.8326,0.8195,0.8194,0.8194,0,0,0.7468,0.7516,0.7586,0.7633,0.7704,0.7737,0.7754,0.7827,0.7852,0.7941,0.7953,0.8012,0.8126,0.8173,0.8212,0.8303,0.8309,0.8323,0.8358,0.8409,0.8418,0.8427,0.8459,0.847,0.8331,0.8331,0.8331,0,0.7487,0.7587,0.7621,0.7692,0.7735,0.7752,0.7823,0.7867,0.7955,0.7984,0.7971,0.8114,0.816,0.8264,0.8286,0.8317,0.8337,0.8315,0.8414,0.8423,0.8431,0.8463,0.8475,0.8333,0.8333,0.8332,0.8332,0,0.7606,0.7676,0.7724,0.7809,0.7858,0.7928,0.7972,0.8017,0.8033,0.8067,0.8156,0.8213,0.8289,0.8315,0.8331,0.8422,0.8413,0.8407,0.8383,0.8443,0.8473,0.8486,0.8334,0.8334,0.8334,0.8333,0,0,0.7682,0.7785,0.7802,0.784,0.792,0.7974,0.8045,0.812,0.8157,0.8217,0.8278,0.8373,0.8368,0.8412,0.8434,0.8479,0.8547,0.8467,0.8469,0.848,0.865,0.8654,0.8667,0.8552,0.8554,0.8556,0.8644,0,0.7765,0.7892,0.7925,0.8033,0.8098,0.8114,0.8176,0.8231,0.8265,0.8324,0.8361,0.8428,0.8416,0.8443,0.8488,0.8529,0.8582,0.8524,0.8608,0.861,0.8591,0.8683,0.8688,0.8768,0.8656,0.8658,0.866,0,0.7879,0.7942,0.8057,0.8127,0.8155,0.821,0.8282,0.8338,0.8401,0.8422,0.8471,0.8488,0.8562,0.8534,0.8637,0.8596,0.8632,0.8658,0.8662,0.8671,0.8639,0.8695,0.8795,0.8807,0.8679,0.8677,0.8676,0,0.7923,0.8036,0.8119,0.8152,0.8236,0.8274,0.8311,0.8371,0.8414,0.8476,0.8505,0.8574,0.8612,0.8665,0.8701,0.8677,0.88,0.8775,0.8819,0.8819,0.8845,0.8843,0.8952,0.8868,0.8868,0.8867,0.8867,0,0.8012,0.8082,0.814,0.8191,0.8269,0.8306,0.8382,0.8419,0.8473,0.8531,0.8549,0.8603,0.8647,0.8707,0.8735,0.8815,0.8832,0.8851,0.8858,0.885,0.8847,0.8874,0.8869,0.8871,0.887,0.8869,0.8869,0,0.8074,0.8116,0.8208,0.828,0.83,0.8354,0.8416,0.8466,0.85,0.8574,0.8593,0.8647,0.8718,0.8759,0.8849,0.8867,0.8957,0.8961,0.8936,0.8939,0.8981,0.8976,0.9111,0.9131,0.9034,0.9034,0.9035,0,0.8129,0.8183,0.8261,0.8301,0.8339,0.8404,0.8448,0.8485,0.853,0.8605,0.8646,0.8719,0.8779,0.8892,0.8939,0.9008,0.9013,0.9056,0.9024,0.9014,0.9014,0.901,0.9016,0.9061,0.9062,0.9063,0.9064,0,0.8221,0.8239,0.8302,0.8372,0.8424,0.8481,0.8537,0.8569,0.8616,0.8666,0.8739,0.8786,0.8878,0.895,0.9022,0.9059,0.9069,0.9073,0.9087,0.908,0.9063,0.9072,0.8951,0.907,0.9069,0.9069,0.9069,0.9068,0.8281,0.833,0.8392,0.8461,0.8508,0.856,0.8611,0.8651,0.8713,0.8791,0.8809,0.8887,0.8947,0.9046,0.9085,0.9146,0.9138,0.9158,0.9163,0.9167,0.9169,0.9053,0.9159,0.9159,0.9159,0.9159,0.9158,0,0.8374,0.8415,0.8478,0.8557,0.8611,0.8616,0.8679,0.8724,0.8792,0.8848,0.8907,0.8991,0.906,0.9112,0.9183,0.9222,0.9228,0.9239,0.9237,0.9245,0.9172,0.9153,0.9233,0.9233,0.9233,0.9233,0.9233,0.9233,0.8429,0.8511,0.8537,0.8642,0.8682,0.8759,0.8794,0.8842,0.8887,0.898,0.9038,0.9072,0.9126,0.9201,0.9265,0.9278,0.9304,0.9314,0.9328,0.9259,0.9251,0.9243,0.9225,0.9319,0.932,0.9397,0.9397,0.9398]},{"header":{"parameterUnit":"m.s-1","parameterCategory":1,"la1":30.2991,"la2":30.254,"lo1":-89.0895,"lo2":-89.0444,"dy":0.0017,"dx":0.0017,"nx":28,"ny":28,"refTime":"2025-12-12T03:00:00:Z","depth":0,"parameterNumber":3,"parameterNumberName":"V-component_of_WINDS"},"data":[0,0,0,0,0,0,0,0,0,0,0,0,0,0,0,0,0,0,0,0,0,0,0,0,0,0,0,0,0,0,0,0,0,0,0,0,0,0,0,0,0,0,0,0,0,0,0,0,0,0,0,0,0,0,0,0,0,0,1.5637,1.5639,0,1.5859,1.5861,1.5864,1.5869,1.5867,1.5864,1.5861,1.6101,1.611,1.6118,0,0,0,0,0,0,0,0,0,0,0,0,0,1.5231,1.5238,1.5637,1.564,1.5642,1.5858,1.5861,1.5864,1.587,1.5867,1.5863,1.586,1.6098,1.6108,1.6119,0,0,0,0,0,0,0,0,0,0,0,0,0,1.5426,1.5241,1.5636,1.5671,1.5676,1.5858,1.5861,1.5865,1.5871,1.5866,1.5862,1.5858,1.6094,1.6107,1.6121,1.6287,0,0,1.6162,1.6168,0,0,0,0,0,0,0,0,1.5415,1.5441,1.5663,1.5669,1.5675,1.5832,1.5806,1.6007,1.5872,1.5797,1.5861,1.5856,1.6016,1.6035,1.6086,1.6298,1.6308,1.6163,1.6171,1.6177,1.6181,0,0,0,0,0,0,0,1.5401,1.5431,1.5725,1.5666,1.5674,1.5679,1.5702,1.5844,1.5927,1.5803,1.5804,1.583,1.6018,1.6073,1.6092,1.6312,1.6163,1.6175,1.6183,1.6188,1.6672,1.6677,0,0,0,0,0,0,1.5379,1.542,1.5718,1.5732,1.5531,1.569,1.5716,1.5786,1.5926,1.5943,1.5833,1.5829,1.6052,1.6076,1.61,1.6305,1.6177,1.6189,1.6197,1.6668,1.6673,1.6679,0,0,0,0,0,0,1.537,1.5405,1.5709,1.5576,1.5615,1.5701,1.578,1.5793,1.5847,1.5948,1.5964,1.5873,1.605,1.6082,1.624,1.6313,1.6195,1.6208,1.6662,1.6669,1.6676,1.6714,0,0,0,0,0,0,1.5358,1.5402,1.5463,1.5577,1.5622,1.5841,1.5785,1.58,1.5869,1.5866,1.599,1.6007,1.6049,1.622,1.6253,1.633,1.6218,1.6656,1.6665,1.6674,1.6707,1.6722,1.6735,0,0,0,0,0,1.5344,1.5468,1.5466,1.5502,1.5699,1.5845,1.5871,1.5914,1.5875,1.5939,1.6004,1.6003,1.6299,1.6236,1.6274,1.6355,1.6651,1.6663,1.6673,1.6701,1.6719,1.6734,0,0,0,0,0,0,1.5365,1.5483,1.5483,1.5646,1.5735,1.5846,1.5928,1.5932,1.6037,1.6031,1.6083,1.6111,1.6269,1.6328,1.6255,1.6524,1.6471,1.649,1.6479,1.6498,1.6511,1.6495,1.6229,0,0,0,0,0,1.5387,1.5492,1.5591,1.5727,1.577,1.5841,1.5907,1.5931,1.6027,1.6066,1.6142,1.6239,1.6354,1.6429,1.654,1.6715,1.6744,1.679,1.6804,1.6815,1.6831,1.693,1.6952,1.6714,1.6714,1.6714,0,0,1.5438,1.5515,1.5579,1.5733,1.5804,1.5915,1.5873,1.5992,1.6076,1.6086,1.6239,1.6298,1.641,1.6577,1.6654,1.6631,1.6903,1.6828,1.6836,1.6847,1.6943,1.6965,1.6985,1.6721,1.672,1.6719,0,0,1.5585,1.5653,1.5773,1.5845,1.5952,1.5998,1.6027,1.6137,1.6176,1.6329,1.6339,1.6441,1.6638,1.6717,1.6783,1.696,1.6964,1.6995,1.7069,1.7164,1.7183,1.72,1.7264,1.7287,1.701,1.7011,1.7011,0,1.5635,1.5798,1.5835,1.5954,1.6023,1.6032,1.6156,1.6225,1.6366,1.6415,1.6385,1.6632,1.6708,1.6894,1.6937,1.6989,1.7027,1.6982,1.7176,1.7193,1.721,1.7273,1.7297,1.7014,1.7013,1.7013,1.7013,0,1.5855,1.5968,1.6053,1.6183,1.6261,1.6382,1.6442,1.6517,1.6535,1.6586,1.6744,1.6834,1.6964,1.701,1.7031,1.7201,1.7183,1.7164,1.7113,1.7235,1.7295,1.7319,1.7018,1.7017,1.7016,1.7015,0,0,1.6023,1.6171,1.6201,1.6261,1.638,1.647,1.6593,1.6716,1.6781,1.6877,1.6984,1.7149,1.7132,1.7207,1.7237,1.732,1.7457,1.7292,1.7296,1.7321,1.7652,1.7666,1.7693,1.7459,1.7464,1.7467,1.7643,0,1.6185,1.6398,1.6435,1.6623,1.673,1.674,1.6847,1.6934,1.6985,1.7086,1.7143,1.726,1.7228,1.7274,1.7356,1.7422,1.7524,1.741,1.7562,1.7567,1.7535,1.7724,1.7739,1.7901,1.7666,1.767,1.7673,0,1.6402,1.6499,1.6696,1.6801,1.6847,1.6942,1.7058,1.7153,1.7253,1.7285,1.7367,1.7387,1.7519,1.7459,1.7643,1.7565,1.763,1.7672,1.7679,1.7697,1.7629,1.7748,1.7953,1.7978,1.771,1.7707,1.7704,0,1.6506,1.6687,1.6829,1.688,1.7005,1.7072,1.7128,1.7223,1.7295,1.7398,1.7445,1.7564,1.7629,1.7722,1.7775,1.7726,1.7956,1.7901,1.7989,1.7988,1.8038,1.8035,1.8258,1.8077,1.8076,1.8076,1.8075,0,1.6684,1.6805,1.6877,1.6965,1.7102,1.7145,1.7281,1.7337,1.7421,1.7523,1.754,1.7636,1.7698,1.7804,1.7847,1.7994,1.8023,1.8055,1.8065,1.8054,1.805,1.8099,1.809,1.8082,1.8081,1.808,1.8079,0,1.6825,1.6877,1.7033,1.7137,1.7167,1.7263,1.7355,1.7442,1.7491,1.762,1.7653,1.7733,1.7858,1.7919,1.8076,1.8104,1.8271,1.8274,1.8236,1.8241,1.8326,1.8318,1.859,1.8629,1.842,1.8421,1.8423,0,1.6935,1.7027,1.7141,1.7207,1.7264,1.7372,1.7444,1.7491,1.7567,1.7687,1.7761,1.7886,1.7988,1.8189,1.8264,1.8384,1.8391,1.8478,1.8409,1.8396,1.8395,1.8389,1.84,1.8491,1.8493,1.8494,1.8496,0,1.7126,1.7147,1.7248,1.7358,1.7443,1.7534,1.7623,1.7678,1.774,1.7825,1.7951,1.803,1.8188,1.8314,1.8439,1.8501,1.8511,1.8516,1.8543,1.8534,1.8509,1.8526,1.8272,1.851,1.8509,1.8508,1.8507,1.8506,1.7256,1.7339,1.7431,1.7544,1.7615,1.7698,1.7785,1.7844,1.7948,1.8078,1.81,1.8235,1.8335,1.8503,1.857,1.8678,1.8659,1.8698,1.8709,1.8718,1.8723,1.849,1.8701,1.8701,1.8701,1.8701,1.87,0,1.7449,1.7508,1.7611,1.7733,1.7823,1.7818,1.7917,1.7993,1.811,1.82,1.8299,1.8445,1.8567,1.865,1.8774,1.8845,1.8853,1.8876,1.8873,1.8888,1.8732,1.8697,1.8868,1.8868,1.8868,1.8868,1.8868,1.8868,1.756,1.77,1.7733,1.791,1.797,1.8098,1.8155,1.8233,1.8305,1.8466,1.8565,1.8616,1.8705,1.8836,1.8948,1.897,1.9016,1.904,1.9062,1.8916,1.8898,1.8882,1.8849,1.9049,1.9049,1.9209,1.921,1.9211]}]]